TimeEDT,TemperatureF,Dew PointF,Humidity,Sea Level PressureIn,VisibilityMPH,Wind Direction,Wind SpeedMPH,Gust SpeedMPH,PrecipitationIn,Events,Conditions,WindDirDegrees,DateUTC
12:15 AM,51.8,46.4,82,29.92,10.0,Calm,Calm,-,N/A,,Clear,0,2012-10-18 04:15:00
12:35 AM,50.0,46.4,87,29.91,10.0,Calm,Calm,-,N/A,,Clear,0,2012-10-18 04:35:00
12:55 AM,48.2,46.4,93,29.91,10.0,Calm,Calm,-,N/A,,Clear,0,2012-10-18 04:55:00
1:15 AM,46.4,46.4,100,29.91,10.0,Calm,Calm,-,N/A,,Clear,0,2012-10-18 05:15:00
1:35 AM,50.0,46.4,87,29.91,10.0,Calm,Calm,-,N/A,,Clear,0,2012-10-18 05:35:00
1:55 AM,48.2,46.4,93,29.92,10.0,Calm,Calm,-,N/A,,Clear,0,2012-10-18 05:55:00
2:15 AM,46.4,46.4,100,29.92,10.0,Calm,Calm,-,N/A,,Clear,0,2012-10-18 06:15:00
2:35 AM,48.2,46.4,93,29.92,10.0,Calm,Calm,-,N/A,,Clear,0,2012-10-18 06:35:00
2:55 AM,48.2,46.4,93,29.91,10.0,Calm,Calm,-,N/A,,Clear,0,2012-10-18 06:55:00
3:15 AM,46.4,44.6,93,29.91,10.0,Calm,Calm,-,N/A,,Clear,0,2012-10-18 07:15:00
3:35 AM,46.4,44.6,93,29.92,10.0,Calm,Calm,-,N/A,,Scattered Clouds,0,2012-10-18 07:35:00
3:55 AM,46.4,46.4,100,29.91,10.0,Calm,Calm,-,N/A,,Mostly Cloudy,0,2012-10-18 07:55:00
4:15 AM,48.2,46.4,93,29.91,10.0,Calm,Calm,-,N/A,,Mostly Cloudy,0,2012-10-18 08:15:00
4:35 AM,50.0,46.4,87,29.91,10.0,Calm,Calm,-,N/A,,Overcast,0,2012-10-18 08:35:00
4:55 AM,48.2,48.2,100,29.90,10.0,Calm,Calm,-,N/A,,Overcast,0,2012-10-18 08:55:00
5:15 AM,48.2,48.2,100,29.91,10.0,Calm,Calm,-,N/A,,Overcast,0,2012-10-18 09:15:00
5:35 AM,50.0,48.2,94,29.90,10.0,Calm,Calm,-,N/A,,Overcast,0,2012-10-18 09:35:00
5:55 AM,48.2,48.2,100,29.91,10.0,Calm,Calm,-,N/A,,Overcast,0,2012-10-18 09:55:00
6:15 AM,51.8,48.2,88,29.90,10.0,Calm,Calm,-,N/A,,Overcast,0,2012-10-18 10:15:00
6:35 AM,51.8,48.2,88,29.89,10.0,East,3.5,-,N/A,,Overcast,80,2012-10-18 10:35:00
6:55 AM,51.8,48.2,88,29.90,10.0,Calm,Calm,-,N/A,,Overcast,0,2012-10-18 10:55:00
7:35 AM,51.8,50.0,94,29.93,10.0,WNW,3.5,-,N/A,,Overcast,300,2012-10-18 11:35:00
7:55 AM,51.8,50.0,94,29.92,10.0,East,3.5,-,N/A,,Overcast,100,2012-10-18 11:55:00
8:15 AM,51.8,50.0,94,29.91,10.0,Calm,Calm,-,N/A,,Mostly Cloudy,0,2012-10-18 12:15:00
8:35 AM,53.6,51.8,94,29.89,10.0,Calm,Calm,-,N/A,,Scattered Clouds,0,2012-10-18 12:35:00
8:55 AM,53.6,51.8,94,29.89,10.0,Calm,Calm,-,N/A,,Mostly Cloudy,0,2012-10-18 12:55:00
9:15 AM,55.4,51.8,88,29.88,7.0,Calm,Calm,-,N/A,,Overcast,0,2012-10-18 13:15:00
9:35 AM,55.4,51.8,88,29.88,10.0,Calm,Calm,-,N/A,,Overcast,0,2012-10-18 13:35:00
9:55 AM,55.4,51.8,88,29.89,10.0,Calm,Calm,-,N/A,,Overcast,0,2012-10-18 13:55:00
10:15 AM,55.4,53.6,94,29.89,5.0,Calm,Calm,-,N/A,,Overcast,0,2012-10-18 14:15:00
10:35 AM,57.2,53.6,88,29.89,5.0,Calm,Calm,-,N/A,,Overcast,0,2012-10-18 14:35:00
10:55 AM,57.2,53.6,88,29.88,4.0,SE,3.5,-,N/A,,Haze,130,2012-10-18 14:55:00
11:17 AM,57.2,53.6,88,29.87,7.0,Calm,Calm,-,N/A,,Overcast,0,2012-10-18 15:17:00
11:35 AM,60.8,55.4,82,29.88,10.0,Calm,Calm,-,N/A,,Overcast,0,2012-10-18 15:35:00
11:55 AM,60.8,55.4,82,29.89,10.0,Calm,Calm,-,N/A,,Overcast,0,2012-10-18 15:55:00
12:15 PM,60.8,55.4,82,29.89,10.0,WSW,3.5,-,N/A,,Overcast,250,2012-10-18 16:15:00
12:35 PM,60.8,55.4,82,29.87,10.0,Calm,Calm,-,N/A,,Overcast,0,2012-10-18 16:35:00
12:55 PM,60.8,55.4,82,29.86,10.0,SSE,3.5,-,N/A,,Overcast,160,2012-10-18 16:55:00
1:15 PM,62.6,55.4,77,29.86,10.0,SSE,4.6,-,N/A,,Overcast,160,2012-10-18 17:15:00
1:35 PM,62.6,57.2,82,29.85,10.0,South,3.5,-,N/A,,Overcast,190,2012-10-18 17:35:00
1:55 PM,62.6,57.2,82,29.85,10.0,SW,3.5,-,N/A,,Overcast,220,2012-10-18 17:55:00
2:15 PM,64.4,57.2,77,29.84,10.0,Calm,Calm,-,N/A,,Overcast,0,2012-10-18 18:15:00
2:35 PM,64.4,57.2,77,29.83,10.0,SW,4.6,-,N/A,,Overcast,230,2012-10-18 18:35:00
2:55 PM,62.6,57.2,82,29.82,7.0,SSE,3.5,-,N/A,,Overcast,160,2012-10-18 18:55:00
3:15 PM,64.4,57.2,77,29.82,10.0,WSW,3.5,-,N/A,,Overcast,240,2012-10-18 19:15:00
3:35 PM,66.2,59.0,78,29.82,10.0,WSW,3.5,-,N/A,,Overcast,250,2012-10-18 19:35:00
3:55 PM,64.4,59.0,83,29.81,10.0,West,3.5,-,N/A,,Overcast,280,2012-10-18 19:55:00
4:15 PM,64.4,59.0,83,29.81,10.0,Calm,Calm,-,N/A,,Overcast,0,2012-10-18 20:15:00
4:35 PM,64.4,59.0,83,29.81,10.0,Calm,Calm,-,N/A,,Overcast,0,2012-10-18 20:35:00
4:55 PM,64.4,59.0,83,29.81,10.0,Calm,Calm,-,N/A,,Overcast,0,2012-10-18 20:55:00
5:15 PM,64.4,59.0,83,29.81,10.0,Calm,Calm,-,N/A,,Overcast,0,2012-10-18 21:15:00
5:35 PM,64.4,59.0,83,29.81,10.0,Calm,Calm,-,N/A,,Overcast,0,2012-10-18 21:35:00
5:55 PM,64.4,59.0,83,29.82,10.0,South,4.6,-,N/A,,Overcast,190,2012-10-18 21:55:00
6:15 PM,64.4,59.0,83,29.82,10.0,South,5.8,-,N/A,,Overcast,190,2012-10-18 22:15:00
6:35 PM,64.4,59.0,83,29.81,10.0,South,5.8,-,N/A,,Mostly Cloudy,180,2012-10-18 22:35:00
6:55 PM,62.6,57.2,82,29.81,10.0,SSW,4.6,-,N/A,,Clear,200,2012-10-18 22:55:00
7:15 PM,62.6,57.2,82,29.82,10.0,South,3.5,-,N/A,,Clear,190,2012-10-18 23:15:00
7:55 PM,60.8,57.2,88,29.81,7.0,Calm,Calm,-,N/A,,Clear,0,2012-10-18 23:55:00
8:15 PM,60.8,57.2,88,29.81,7.0,Calm,Calm,-,N/A,,Clear,0,2012-10-19 00:15:00
8:35 PM,60.8,57.2,88,29.80,7.0,SSE,4.6,-,N/A,,Clear,150,2012-10-19 00:35:00
8:55 PM,59.0,57.2,94,29.81,5.0,SE,4.6,-,N/A,,Clear,140,2012-10-19 00:55:00
9:15 PM,59.0,57.2,94,29.81,5.0,SE,4.6,-,N/A,,Clear,140,2012-10-19 01:15:00
9:35 PM,59.0,57.2,94,29.81,5.0,Calm,Calm,-,N/A,,Clear,0,2012-10-19 01:35:00
9:55 PM,57.2,57.2,100,29.81,5.0,Calm,Calm,-,N/A,,Clear,0,2012-10-19 01:55:00
10:15 PM,57.2,57.2,100,29.82,4.0,SE,3.5,-,N/A,,Clear,140,2012-10-19 02:15:00
10:35 PM,57.2,57.2,100,29.81,4.0,Calm,Calm,-,N/A,,Clear,0,2012-10-19 02:35:00
10:55 PM,57.2,55.4,94,29.81,2.5,Calm,Calm,-,N/A,,Clear,0,2012-10-19 02:55:00
11:15 PM,57.2,57.2,100,29.81,3.0,Calm,Calm,-,N/A,,Clear,0,2012-10-19 03:15:00
11:55 PM,57.2,57.2,100,29.81,1.0,Calm,Calm,-,N/A,,Overcast,0,2012-10-19 03:55:00